TimeMST,TemperatureF,Dew PointF,Humidity,Sea Level PressureIn,VisibilityMPH,Wind Direction,Wind SpeedMPH,Gust SpeedMPH,PrecipitationIn,Events,Conditions,WindDirDegrees,DateUTC
12:53 AM,21.9,17.1,82,30.19,10.0,SSE,4.6,-,N/A,,Overcast,160,2013-01-01 07:53:00
1:53 AM,21.9,18.0,85,30.19,10.0,South,3.5,-,0.00,,Overcast,190,2013-01-01 08:53:00
2:53 AM,21.9,18.0,85,30.21,10.0,South,3.5,-,N/A,,Overcast,170,2013-01-01 09:53:00
3:53 AM,23.0,17.6,80,30.06,10.0,Calm,Calm,-,N/A,,Overcast,0,2013-01-01 10:53:00
4:53 AM,23.0,19.0,85,30.22,10.0,Calm,Calm,-,N/A,,Overcast,0,2013-01-01 11:53:00
5:53 AM,19.0,14.0,81,30.23,10.0,Variable,3.5,-,N/A,,Partly Cloudy,0,2013-01-01 12:53:00
6:53 AM,15.8,10.4,79,30.04,10.0,SW,3.5,-,N/A,,Mostly Cloudy,230,2013-01-01 13:53:00
7:53 AM,10.0,5.0,80,30.23,10.0,Calm,Calm,-,N/A,,Clear,0,2013-01-01 14:53:00
8:53 AM,16.0,7.0,68,30.21,10.0,SSW,3.5,-,N/A,,Scattered Clouds,210,2013-01-01 15:53:00
9:53 AM,24.1,12.0,60,30.19,10.0,South,3.5,-,N/A,,Clear,180,2013-01-01 16:53:00
10:53 AM,27.0,14.0,58,30.19,10.0,Calm,Calm,-,N/A,,Clear,0,2013-01-01 17:53:00
11:53 AM,30.9,18.0,59,30.14,10.0,South,4.6,-,N/A,,Partly Cloudy,180,2013-01-01 18:53:00
12:53 PM,34.0,16.0,48,30.10,10.0,Calm,Calm,-,N/A,,Overcast,0,2013-01-01 19:53:00
1:53 PM,34.0,19.9,56,30.10,10.0,NE,4.6,-,N/A,,Overcast,40,2013-01-01 20:53:00
2:53 PM,28.9,24.1,82,30.18,4.0,NW,24.2,-,0.00,Snow,Light Snow,320,2013-01-01 21:53:00
2:58 PM,30.2,24.8,80,30.05,2.5,NW,31.1,35.7,0.00,Snow,Light Snow,320,2013-01-01 21:58:00
3:07 PM,28.4,24.8,86,30.05,0.8,NW,33.4,41.4,0.00,Snow,Light Snow,310,2013-01-01 22:07:00
3:13 PM,28.4,26.6,93,30.05,0.5,NW,35.7,46.0,0.00,Fog-Snow,Snow,310,2013-01-01 22:13:00
3:25 PM,28.4,24.8,86,30.06,0.8,NW,33.4,42.6,0.00,Snow,Light Snow,310,2013-01-01 22:25:00
3:28 PM,28.4,24.8,86,30.07,0.5,NW,35.7,43.7,0.00,Fog-Snow,Light Snow,310,2013-01-01 22:28:00
3:48 PM,28.4,24.8,86,30.06,0.8,NW,31.1,36.8,0.00,Snow,Light Snow,320,2013-01-01 22:48:00
3:53 PM,28.0,24.1,85,30.19,1.0,NW,26.5,36.8,0.00,Snow,Light Snow,310,2013-01-01 22:53:00
4:17 PM,28.4,24.8,86,30.06,3.0,NW,20.7,-,0.00,Snow,Light Snow,310,2013-01-01 23:17:00
4:53 PM,28.0,24.1,85,30.20,1.8,NW,27.6,39.1,0.00,Snow,Light Snow,310,2013-01-01 23:53:00
5:04 PM,28.4,23.0,80,30.07,3.0,NW,25.3,34.5,0.00,Snow,Light Snow,310,2013-01-02 00:04:00
5:53 PM,28.0,21.9,78,30.25,6.0,NW,23.0,35.7,0.00,,Haze,320,2013-01-02 00:53:00
6:40 PM,26.6,24.8,93,30.13,2.0,NW,21.9,28.8,0.00,Snow,Light Snow,320,2013-01-02 01:40:00
6:53 PM,27.0,24.1,89,30.30,1.5,NW,26.5,33.4,0.00,Snow,Light Snow,320,2013-01-02 01:53:00
7:00 PM,26.6,24.8,93,30.14,1.2,NW,27.6,36.8,0.00,Snow,Light Snow,320,2013-01-02 02:00:00
7:20 PM,26.6,21.2,80,30.14,2.5,NW,23.0,33.4,0.00,Snow,Light Snow,310,2013-01-02 02:20:00
7:46 PM,26.6,21.2,80,30.15,7.0,NNW,19.6,28.8,0.00,Snow,Light Snow,330,2013-01-02 02:46:00
7:53 PM,27.0,19.9,75,30.32,9.0,NNW,18.4,-,0.00,,Overcast,330,2013-01-02 02:53:00
8:53 PM,28.0,19.0,69,30.31,10.0,NW,18.4,-,N/A,,Overcast,310,2013-01-02 03:53:00
9:53 PM,27.0,21.0,78,30.31,10.0,NW,18.4,-,0.00,Snow,Light Snow,310,2013-01-02 04:53:00
10:30 PM,26.6,19.4,74,30.16,4.0,NW,18.4,-,0.00,Snow,Light Snow,320,2013-01-02 05:30:00
10:50 PM,26.6,21.2,80,30.17,1.8,NW,25.3,31.1,0.00,Snow,Light Snow,320,2013-01-02 05:50:00
10:53 PM,26.1,21.9,84,30.30,1.2,NW,18.4,31.1,0.00,Snow,Light Snow,320,2013-01-02 05:53:00
11:15 PM,26.6,21.2,80,30.16,0.8,NW,31.1,36.8,0.00,Snow,Light Snow,310,2013-01-02 06:15:00
11:19 PM,26.6,21.2,80,30.16,1.0,NW,26.5,39.1,0.00,Snow,Light Snow,310,2013-01-02 06:19:00
11:35 PM,26.6,21.2,80,30.16,1.0,NW,28.8,33.4,0.00,Snow,Light Snow,310,2013-01-02 06:35:00
11:42 PM,26.6,21.2,80,30.16,1.5,WNW,25.3,33.4,0.00,Snow,Light Snow,300,2013-01-02 06:42:00
11:49 PM,26.6,21.2,80,30.17,3.0,WNW,20.7,-,0.00,Snow,Light Snow,300,2013-01-02 06:49:00
11:53 PM,27.0,19.9,75,30.28,5.0,WNW,18.4,-,0.00,Snow,Light Snow,300,2013-01-02 06:53:00